World > North America > United States > Arkansas > Wickes  

Wickes, AR Hourly Weather Forecast

Feedback E-mail the Weather

Quick Clicks

Weather World

24 Hour Forecast

Current Conditions - Mostly Cloudy. Temperature is 79°F26°C, dew point 72°F22°C, humidity 79%. Wind direction is N at 0 mph0 km/h with visibility of 10 mi16 km. Barometric pressure is 29.88 in1011 mb.
Rest of Today - Partly sunny with a chance of showers and thunderstorms. Near steady temperature around 80. Southwest winds around 10 mph with gus.. Full Forecast
Tonight - Mostly cloudy. A chance of showers and thunderstorms in the evening. Cooler with lows in the lower 50s. Northwest winds 5 to 10 mp.. Full Forecast

Wickes Hourly Weather

24 Hour Weather Scroll
Thu, Apr 18
7:00 pm
Thu, Apr 18
8:00 pm
Thu, Apr 18
9:00 pm
Thu, Apr 18
10:00 pm
Thu, Apr 18
11:00 pm
Fri, Apr 19
Midnight
Fri, Apr 19
1:00 am
Fri, Apr 19
2:00 am
Fri, Apr 19
3:00 am
Fri, Apr 19
4:00 am
Fri, Apr 19
5:00 am
Fri, Apr 19
6:00 am
Fri, Apr 19
7:00 am
Fri, Apr 19
8:00 am
Fri, Apr 19
9:00 am
Fri, Apr 19
10:00 am
Fri, Apr 19
11:00 am
Fri, Apr 19
Noon
Fri, Apr 19
1:00 pm
Fri, Apr 19
2:00 pm
Fri, Apr 19
3:00 pm
Fri, Apr 19
4:00 pm
Fri, Apr 19
5:00 pm
Fri, Apr 19
6:00 pm
SunnyMistMistPatchy Rain NearbyPatchy Rain NearbyPatchy Rain NearbyPatchy Rain NearbyCloudy Cloudy Partly Cloudy Cloudy Overcast Cloudy Overcast Overcast Cloudy Cloudy Partly Cloudy Partly Cloudy Cloudy Partly Cloudy Partly Cloudy Partly Cloudy Partly Cloudy
Sunny Mist Mist Patchy Rain Nearby Patchy Rain Nearby Patchy Rain Nearby Patchy Rain Nearby Cloudy Cloudy Partly Cloudy Cloudy Overcast Cloudy Overcast Overcast Cloudy Cloudy Partly Cloudy Partly Cloudy Cloudy Partly Cloudy Partly Cloudy Partly Cloudy Partly Cloudy
74°F24°C 71°F22°C 67°F19°C 63°F17°C 61°F16°C 59°F15°C 58°F14°C 57°F14°C 56°F13°C 55°F13°C 54°F12°C 54°F12°C 55°F13°C 56°F13°C 58°F15°C 61°F16°C 64°F18°C 66°F19°C 68°F20°C 70°F21°C 71°F22°C 72°F22°C 71°F22°C 68°F20°C
72°F
22°C
70°F
21°C
67°F
19°C
61°F
16°C
58°F
14°C
56°F
13°C
55°F
13°C
54°F
12°C
53°F
11°C
52°F
11°C
51°F
11°C
50°F
10°C
50°F
10°C
50°F
10°C
50°F
10°C
51°F
10°C
52°F
11°C
52°F
11°C
52°F
11°C
53°F
12°C
53°F
12°C
53°F
12°C
53°F
12°C
54°F
12°C
29.91 in
1013 mb
29.88 in
1012 mb
29.91 in
1013 mb
29.97 in
1015 mb
29.97 in
1015 mb
30 in
1016 mb
30 in
1016 mb
30 in
1016 mb
30.03 in
1017 mb
30.03 in
1017 mb
30.06 in
1018 mb
30.06 in
1018 mb
30.09 in
1019 mb
30.12 in
1020 mb
30.12 in
1020 mb
30.15 in
1021 mb
30.12 in
1020 mb
30.12 in
1020 mb
30.12 in
1020 mb
30.09 in
1019 mb
30.06 in
1018 mb
30.06 in
1018 mb
30.06 in
1018 mb
30.06 in
1018 mb
94%95%96%94%94%93%92%91%90%89%90%89%86%82%77%71%64%59%57%53%50%50%52%57%
NWNNWNNWNNWNNWNNWNNWNNNNNENNENNENENENENEENEEEEEESE
2 mph
4 km/h
5 mph
9 km/h
7 mph
12 km/h
9 mph
15 km/h
10 mph
16 km/h
10 mph
15 km/h
11 mph
17 km/h
10 mph
15 km/h
9 mph
15 km/h
9 mph
14 km/h
8 mph
13 km/h
9 mph
14 km/h
9 mph
14 km/h
9 mph
15 km/h
9 mph
15 km/h
8 mph
13 km/h
8 mph
12 km/h
6 mph
10 km/h
6 mph
9 km/h
6 mph
10 km/h
6 mph
10 km/h
6 mph
9 km/h
5 mph
9 km/h
5 mph
9 km/h
100%100%65%72%77%79%69%0%0%0%0%0%0%0%0%0%0%0%0%0%0%0%0%0%
9 mi
14 km
1 mi
2 km
1 mi
2 km
6 mi
10 km
6 mi
10 km
6 mi
10 km
6 mi
10 km
6 mi
10 km
6 mi
10 km
6 mi
10 km
6 mi
10 km
6 mi
10 km
6 mi
10 km
6 mi
10 km
6 mi
10 km
6 mi
10 km
6 mi
10 km
6 mi
10 km
6 mi
10 km
6 mi
10 km
6 mi
10 km
6 mi
10 km
6 mi
10 km
6 mi
10 km

Day/Time
Weather
Condition
Temperature
Dew Point
Pressure
Humidity
Wind Direction
Wind Speed
Prob Precip %
Visibility
POP = Probability of Precipitation. ** Indicates missing data/values from KDEQ model statistics.

Trending Headlines

Trending Entertainment Headlines

Wickes Radar Loop

Use the map search tool if you want to place a location marker on the radar map...

48 Hour API Forecast

Prob Precip % = Probability of Precipitation.

Wickes 36 Hour Forecast

POP = Probability of Precipitation. ** Indicates missing data/values from model statistics.

E-mail the Wickes Weather Forecast

Voice your opinion or tell us about page issues...

Wickes AR Weather - 8:41 pm

What are people saying?

Contact Us